Wind_Speed
18 12 10 10 12 14 15 17 19 20 19 18 18 20 21 21 22 22 23 24 23 23 23 23 24 24 25 24 23 23 22 21 19 20 22 23 23 24 25 26 28 29 29 29 29 30 29 29 28 27 27 26 26 27 28 29 30 31 31 32 33 34 35
20 13 8 9 14 17 19 19 19 19 20 19 19 19 20 22 22 21 22 23 22 22 22 22 22 23 22 21 20 21 21 19 17 18 21 22 23 24 25 27 28 29 29 29 29 29 28 27 27 26 26 26 27 28 29 30 31 31 31 32 33 34 35
18 14 10 9 10 12 14 15 17 19 19 19 19 19 20 22 21 20 21 21 21 22 22 22 22 22 21 20 20 21 21 20 18 19 21 22 23 24 26 27 28 29 29 29 29 29 28 27 26 26 26 27 27 28 29 30 31 32 32 32 33 34 35
17 16 15 16 15 14 13 11 13 17 18 18 19 20 21 21 21 20 20 20 21 22 22 22 22 22 22 21 21 22 22 21 21 21 22 22 22 24 25 26 26 27 28 28 28 27 27 26 26 27 27 28 28 29 30 31 32 33 34 34 34 35 36
20 20 19 19 18 17 17 14 11 12 14 15 17 19 19 19 20 20 20 20 21 23 23 23 22 23 24 23 23 23 23 22 22 23 23 21 21 23 24 24 24 26 27 27 27 26 26 27 27 28 28 28 29 29 31 32 34 35 35 35 34 35 36
23 24 22 19 16 16 18 17 13 11 13 14 15 16 16 17 18 19 20 21 22 24 25 24 23 23 24 25 24 24 23 23 23 24 23 22 22 23 23 23 24 25 26 26 26 26 27 28 29 29 29 29 30 31 33 34 34 35 36 36 35 36 37
27 27 25 21 17 15 16 16 14 12 13 15 15 15 16 17 17 19 20 22 24 25 27 26 25 24 24 25 25 24 24 23 23 24 24 23 24 23 22 22 24 25 26 26 26 26 28 29 30 30 30 30 31 33 34 34 35 36 37 37 36 36 37
30 29 28 25 21 18 17 16 16 13 11 13 14 15 16 17 18 20 22 23 24 26 28 29 28 27 25 26 26 26 25 24 24 24 24 24 24 23 22 23 24 26 27 27 27 27 28 30 31 30 30 31 33 34 34 35 36 37 37 37 37 37 38
30 29 29 28 25 22 20 19 17 15 13 13 14 15 16 18 20 21 23 24 26 27 29 30 31 29 27 26 27 28 27 25 24 24 25 25 25 24 23 24 25 27 28 28 28 28 29 31 31 31 31 32 32 33 34 35 37 38 38 38 38 39 40
29 29 29 29 27 26 24 19 16 16 15 15 15 16 18 19 21 22 24 27 28 28 29 31 31 30 28 27 28 29 29 27 25 24 25 26 25 24 23 24 26 29 30 29 29 30 30 32 32 31 31 32 33 33 35 36 37 38 39 39 39 39 40
28 28 29 27 26 25 22 17 15 15 15 15 16 17 18 20 22 24 26 28 28 28 29 31 31 30 30 30 30 30 30 28 26 25 25 26 26 25 23 24 27 29 30 30 31 32 32 33 33 32 33 34 35 35 36 37 38 38 39 38 39 39 40
28 27 28 27 26 24 21 19 18 17 16 16 17 19 21 22 24 26 28 28 28 28 29 31 31 30 31 32 32 31 31 30 28 26 25 26 27 27 25 25 28 30 30 30 32 33 34 34 34 34 35 36 36 37 38 38 38 39 39 39 39 40 41
29 27 27 26 25 25 24 22 20 19 19 19 20 22 24 26 27 29 30 30 30 30 31 31 31 29 31 32 32 32 33 32 31 29 27 27 27 27 26 26 29 30 30 31 34 35 35 35 35 35 36 36 37 38 38 38 38 39 40 40 41 42 42
30 30 27 23 22 24 26 24 20 18 19 21 23 24 27 30 32 32 32 33 32 33 33 31 30 31 32 33 34 35 35 34 35 33 28 27 28 27 26 28 30 30 29 32 34 35 35 36 36 36 35 36 37 38 38 38 39 40 40 41 42 42 41
35 34 29 24 25 28 29 28 24 22 23 24 24 26 30 33 35 36 36 35 35 37 35 32 32 33 35 37 39 39 35 33 35 32 29 30 31 27 26 28 29 28 29 32 34 35 36 37 36 35 35 35 36 37 38 38 39 40 41 41 41 40 39
38 36 30 28 30 31 31 31 30 28 28 27 26 28 32 34 36 38 38 37 37 38 36 35 35 35 36 39 41 39 35 33 33 32 32 34 32 25 24 26 26 27 29 32 34 36 37 37 36 35 35 35 36 37 38 38 39 40 41 41 41 39 39
39 38 34 33 34 33 32 32 31 31 31 31 32 33 34 35 36 37 39 39 38 37 37 38 37 36 36 38 40 39 36 34 36 39 40 37 31 24 25 25 25 27 29 32 35 37 37 37 36 35 34 34 37 39 40 39 39 40 41 41 41 41 41
42 40 38 36 36 35 33 31 31 31 33 36 38 38 38 38 38 38 39 40 38 38 39 39 38 36 34 35 38 37 35 36 42 46 45 38 33 27 28 26 25 27 30 33 35 36 36 36 35 35 34 35 39 41 40 39 40 41 41 42 42 43 43
43 41 38 37 37 37 36 37 37 36 36 39 40 41 41 41 41 40 40 40 41 42 41 38 36 37 37 38 39 37 35 38 42 45 43 37 33 30 30 27 26 29 31 33 35 35 36 36 35 34 35 38 41 41 40 40 41 41 41 42 43 44 44
42 40 39 39 39 40 41 43 44 43 43 43 42 42 42 42 42 42 40 41 44 45 44 40 38 38 39 42 42 41 40 38 38 41 40 35 32 32 32 28 28 29 31 32 34 34 34 34 33 35 37 40 42 41 41 42 42 41 41 43 45 45 45
40 39 39 40 42 43 43 43 45 47 47 46 44 42 42 42 42 41 40 42 45 46 46 43 40 38 39 43 45 44 39 33 30 31 30 30 31 33 30 28 29 30 31 32 32 31 31 32 34 37 39 41 42 43 44 43 41 41 43 45 45 44 44
38 40 42 43 43 43 41 40 42 45 45 44 42 42 41 41 41 40 39 40 43 46 44 39 35 34 36 39 39 32 25 24 27 29 28 29 30 29 28 29 30 32 32 32 30 30 31 34 37 39 39 41 44 46 45 43 42 43 45 45 44 44 44
42 44 44 43 41 40 38 38 40 42 42 42 41 41 40 41 41 40 39 38 40 43 42 35 31 33 35 36 34 30 29 33 35 33 31 29 28 28 30 32 34 35 35 33 32 32 34 37 37 38 41 44 46 45 43 42 45 46 45 44 44 45 45
50 47 44 43 43 40 39 40 41 41 41 41 40 40 40 41 41 40 40 38 38 40 40 36 33 35 37 38 37 39 41 40 35 33 31 29 29 31 33 35 36 36 35 34 34 35 37 38 39 42 44 44 43 43 43 46 48 47 45 44 44 45 45
51 45 42 42 41 40 41 40 39 39 40 40 40 40 40 41 41 41 41 39 37 38 39 38 37 37 39 39 39 40 39 36 35 34 31 29 31 33 35 36 37 35 34 34 36 37 39 41 43 45 44 41 42 45 47 48 49 47 46 46 46 46 45
49 46 46 46 45 45 43 38 36 37 39 40 40 41 41 41 41 42 41 40 39 38 38 39 39 40 42 42 40 38 37 37 37 35 32 32 34 34 35 36 36 34 34 35 37 39 41 42 42 42 41 43 47 49 48 48 49 48 47 47 46 46 45
49 50 53 54 52 47 40 34 35 37 37 38 40 40 41 41 41 42 42 42 41 40 40 41 41 41 41 40 38 37 38 38 37 34 34 34 34 34 36 36 34 34 35 36 39 41 42 40 39 40 45 49 51 50 50 50 49 47 47 47 47 47 46
56 57 57 53 48 42 37 36 37 37 38 40 41 41 42 41 41 42 42 42 42 42 43 43 41 38 36 36 37 39 39 38 36 35 35 36 36 38 38 35 34 35 37 39 41 41 39 38 40 45 50 52 50 50 51 50 48 47 47 47 47 46 46
59 57 52 45 41 40 39 38 39 39 40 40 39 39 39 39 39 40 40 41 43 43 43 43 40 36 35 36 38 39 39 38 37 36 35 35 34 33 33 33 36 38 39 40 42 40 36 39 46 50 51 51 50 51 51 50 48 48 48 47 46 45 44
52 45 40 38 38 40 40 41 41 41 39 37 36 36 37 36 37 38 39 40 41 42 43 43 40 37 37 38 39 40 40 40 37 32 29 29 29 29 32 38 42 42 42 43 43 41 40 43 48 50 50 50 51 51 51 50 49 49 48 47 45 43 41
44 39 37 39 41 42 42 42 42 40 37 36 36 36 36 37 36 37 38 39 40 41 43 43 43 42 42 41 40 37 36 36 35 31 31 35 37 39 41 44 45 46 47 46 45 44 44 46 48 48 49 50 51 51 51 50 50 49 48 45 42 40 38
42 40 39 40 40 41 41 40 39 38 37 37 37 37 37 36 36 36 37 37 39 41 41 43 46 47 44 41 37 31 27 29 32 33 36 41 43 44 46 47 48 48 48 47 46 45 46 46 47 48 49 50 51 51 50 50 49 47 44 41 39 37 35
40 38 37 36 36 37 37 37 37 37 37 37 38 37 37 36 36 36 36 37 40 42 41 41 40 39 37 37 36 33 33 37 40 41 43 44 44 46 48 49 50 49 47 47 46 46 46 47 48 49 50 50 50 50 49 48 45 42 39 38 37 35 34
37 36 35 34 33 34 34 35 36 36 36 37 37 37 37 37 37 38 39 40 41 42 42 40 38 38 40 40 37 36 39 41 42 42 42 43 44 47 49 49 49 47 46 46 45 46 46 48 49 49 49 49 48 48 46 43 40 38 37 37 35 34 34
37 36 34 33 34 34 34 34 35 35 35 35 36 36 37 39 39 40 41 42 42 42 42 41 40 40 41 41 39 40 41 40 38 39 42 45 47 48 48 47 46 45 45 45 45 46 47 47 47 47 47 47 46 45 42 39 37 37 36 35 34 33 32
36 35 34 34 35 35 35 35 35 35 35 35 36 38 39 41 41 42 42 43 44 42 41 39 37 37 38 39 39 39 39 37 39 43 47 49 49 48 46 45 45 45 45 46 46 46 46 46 46 46 46 46 44 41 39 37 36 35 34 33 32 31 31
35 35 36 36 36 36 36 36 36 36 37 37 38 40 41 42 41 40 42 43 42 39 36 35 36 38 39 40 40 40 41 43 46 49 50 49 49 47 45 45 44 45 45 46 45 45 45 46 46 46 45 44 42 39 37 36 35 34 33 32 31 30 30
36 37 37 37 37 37 37 38 39 39 40 40 40 41 42 42 41 41 42 42 41 39 39 39 40 41 43 45 48 49 50 50 50 50 49 49 47 45 44 43 44 44 45 45 46 46 46 47 47 45 43 42 40 38 36 35 34 34 33 32 31 30 30
Wind_Direction
307 313 302 269 251 254 270 282 281 276 274 272 268 267 270 272 274 276 278 280 283 284 284 284 283 282 282 282 283 283 285 286 286 287 290 291 290 290 292 294 295 296 298 300 301 302 303 304 304 304 304 305 306 306 306 307 307 308 309 310 310 310 310
303 308 299 263 251 257 265 269 273 274 274 273 267 263 266 271 275 279 282 285 287 288 288 288 286 285 285 285 285 287 290 289 284 282 285 288 289 290 292 293 295 296 297 299 301 303 304 304 304 305 305 306 306 306 306 306 306 307 308 308 309 309 309
302 315 323 306 280 271 268 263 264 267 269 269 265 260 262 268 274 280 285 288 289 289 289 289 290 289 288 287 288 291 293 292 288 283 282 285 288 290 291 293 294 295 298 301 303 304 305 306 307 306 305 305 306 306 305 305 306 306 308 309 310 311 310
307 317 321 321 318 309 300 284 267 264 265 265 263 261 264 270 278 286 289 291 291 291 292 293 295 294 292 291 291 293 294 294 291 286 283 285 289 291 291 291 293 297 301 304 304 306 308 308 307 305 305 305 306 306 306 307 308 310 311 312 313 312 312
306 314 317 318 316 312 309 301 280 265 265 267 267 267 271 277 286 293 296 296 295 294 295 296 297 298 298 296 295 295 294 294 291 287 285 287 292 292 290 288 294 301 304 304 306 308 309 306 304 304 304 305 306 307 308 309 310 312 312 313 313 313 313
304 310 314 315 314 310 307 303 291 270 262 265 268 269 275 282 289 295 298 299 297 295 296 297 298 298 298 297 296 294 293 292 291 288 286 289 293 293 288 287 297 304 305 306 308 309 308 306 305 304 304 305 306 306 307 309 310 311 311 313 315 316 315
303 307 309 311 312 307 303 302 301 286 267 263 266 268 273 278 284 291 295 296 295 295 296 296 295 295 295 295 293 292 289 288 288 288 286 288 291 292 287 288 299 307 308 309 310 309 309 307 305 304 303 304 304 305 306 308 310 310 312 315 316 316 316
301 304 308 311 311 309 305 304 305 300 283 272 270 272 273 276 284 291 292 292 293 294 294 293 292 293 293 291 289 287 285 284 285 285 283 285 289 291 287 288 299 308 309 310 311 310 309 306 303 302 301 302 303 304 307 309 312 314 315 316 317 317 317
298 303 308 310 311 309 305 301 296 290 286 282 277 278 279 282 289 293 293 292 292 291 289 288 288 290 291 289 286 284 281 281 283 283 282 284 288 290 287 288 297 305 308 310 311 309 307 304 300 299 299 301 303 305 309 313 315 316 316 317 319 319 319
296 301 304 306 307 305 300 295 288 281 282 285 284 284 286 290 295 297 296 293 291 288 284 284 286 286 286 285 282 281 281 280 281 281 281 284 289 291 287 288 295 301 305 308 309 307 305 301 298 297 298 300 302 306 311 314 315 316 317 318 320 320 320
294 298 300 303 305 303 295 287 284 283 283 287 292 292 292 294 295 295 295 293 290 287 283 283 284 283 283 282 279 278 281 281 281 281 281 282 286 289 286 288 295 299 302 306 307 305 301 297 295 295 297 299 302 306 309 311 313 316 318 320 321 321 320
291 296 298 298 300 302 298 291 288 288 289 293 297 295 293 294 295 295 296 294 291 288 285 282 281 281 281 282 280 277 278 280 279 278 277 278 281 283 286 291 295 296 300 304 304 301 296 294 294 295 297 299 301 305 307 309 312 316 319 321 322 322 321
294 298 298 293 291 294 297 295 293 291 294 298 298 298 299 298 299 298 297 297 296 292 287 282 280 281 282 283 282 276 275 276 275 274 277 280 280 282 287 292 293 294 298 300 299 296 294 294 296 297 298 299 302 304 307 310 313 316 319 322 323 322 320
297 298 300 296 292 294 294 295 294 289 290 294 295 300 303 300 299 297 296 299 299 295 289 283 281 283 284 284 280 272 267 269 272 277 282 282 279 279 285 289 289 291 294 295 295 294 294 296 297 298 298 300 303 306 310 313 315 317 320 322 323 321 319
294 292 293 294 299 301 295 291 291 285 284 287 289 296 300 298 297 297 298 300 298 295 292 287 285 285 284 283 276 266 259 262 270 276 278 276 274 276 285 288 287 288 292 293 293 294 295 296 297 298 299 301 305 310 314 316 317 319 321 323 323 322 321
290 291 291 294 302 304 294 288 290 290 290 291 290 292 295 294 294 295 298 298 295 295 294 290 287 284 281 280 276 269 265 266 269 273 276 275 270 275 290 292 288 290 293 293 294 294 295 295 296 298 300 304 310 315 318 319 319 320 321 322 322 321 321
290 293 295 299 304 305 298 292 292 295 299 300 296 293 292 293 294 294 295 295 294 297 295 289 285 281 278 279 279 279 277 272 269 273 278 273 262 274 300 300 293 295 295 293 294 294 294 296 298 300 303 309 316 319 320 320 320 321 321 320 320 319 318
289 292 296 299 302 305 303 298 295 298 302 302 297 294 294 296 297 296 295 295 297 297 292 287 282 279 280 282 281 281 281 275 270 272 275 268 257 274 303 305 297 297 295 294 296 296 298 300 301 303 307 314 319 320 319 319 320 320 319 319 319 318 317
286 290 294 297 299 301 301 298 295 294 297 298 296 294 294 295 297 297 297 298 297 294 291 288 281 276 279 282 280 277 279 279 275 271 270 263 260 280 303 305 298 297 296 296 299 300 302 303 303 305 310 316 319 318 317 317 318 318 318 319 320 319 318
284 288 291 292 294 296 296 293 289 288 291 294 294 293 294 295 296 297 296 296 295 293 292 289 280 275 277 278 280 281 281 281 279 273 268 262 270 290 304 302 298 297 297 299 301 302 303 304 306 308 312 316 317 316 317 317 316 316 318 320 320 318 317
281 283 284 284 287 290 290 287 284 284 288 291 292 293 293 294 294 293 294 295 296 297 298 293 285 284 284 284 286 286 280 276 279 280 275 272 282 296 301 299 297 297 297 299 301 304 307 308 308 308 310 313 315 316 316 315 315 317 319 319 318 316 315
273 275 277 280 286 289 287 284 284 286 288 289 291 292 291 291 290 290 293 296 297 301 304 301 292 289 294 296 294 288 280 282 288 289 286 286 292 299 300 297 297 296 297 302 305 309 311 310 309 308 310 313 315 315 314 313 315 318 319 318 316 315 315
268 272 277 282 287 289 288 286 287 288 288 288 289 289 289 289 290 292 294 297 299 302 305 304 294 289 296 301 296 287 290 299 299 295 292 293 298 301 299 297 297 298 302 307 310 311 311 310 309 309 311 314 315 314 313 314 317 318 318 317 315 315 315
272 275 280 284 284 283 284 286 286 285 286 286 286 286 287 288 290 292 294 297 300 301 303 303 298 293 295 296 292 290 296 302 303 300 296 296 298 299 297 297 298 301 306 309 309 308 308 308 308 309 311 314 316 315 314 314 316 318 318 316 315 315 315
273 275 279 280 277 276 281 284 283 283 283 284 283 283 284 285 287 290 293 297 299 300 301 302 300 296 295 293 292 294 299 303 304 301 296 294 296 296 294 296 299 303 306 307 306 305 305 307 309 309 311 315 318 316 315 315 316 318 318 316 315 315 313
272 274 276 275 275 278 281 280 278 279 280 279 280 281 282 285 287 290 294 297 299 300 300 300 299 297 295 294 294 297 298 299 300 298 292 291 292 291 292 296 300 303 304 304 304 305 307 310 313 313 313 315 317 316 315 316 317 317 317 315 314 313 311
272 274 277 277 277 280 280 277 276 277 278 279 281 282 284 287 290 292 295 298 300 302 303 303 302 299 295 294 296 298 297 296 295 293 290 289 288 288 291 296 299 302 303 303 305 309 312 314 314 313 312 313 314 315 316 317 317 316 315 314 312 311 309
271 275 279 278 276 276 277 276 277 278 280 281 282 283 285 288 290 293 296 298 300 304 306 306 305 299 294 294 297 298 295 291 290 289 288 286 284 286 290 294 299 306 308 308 311 314 315 313 311 310 310 312 313 315 316 316 316 315 314 313 311 309 307
272 275 276 273 271 273 276 276 278 280 282 283 283 284 286 288 290 292 294 297 300 304 306 306 303 295 290 292 296 296 292 288 288 291 289 286 286 289 296 301 305 309 311 312 314 316 312 307 307 309 311 312 314 315 315 316 315 315 313 311 309 307 305
273 274 273 271 273 277 278 279 281 282 283 284 285 286 286 287 289 292 295 298 301 303 304 302 297 291 287 290 296 298 292 286 287 288 285 284 287 292 300 305 306 308 311 313 314 313 309 305 307 310 311 313 315 315 315 315 315 313 311 309 307 305 305
270 272 275 277 278 278 279 280 281 283 284 285 285 285 287 289 291 293 296 299 300 301 301 299 294 288 284 289 297 299 290 281 279 277 274 278 284 287 293 300 304 308 311 312 311 310 308 308 309 311 313 314 315 315 315 314 312 310 308 307 306 305 306
272 275 278 278 277 277 278 280 281 283 285 286 287 288 290 292 293 295 297 298 299 300 300 300 295 286 280 284 290 288 278 275 278 277 276 280 285 288 292 299 304 308 309 309 308 309 309 310 312 313 314 314 314 313 313 310 308 307 306 306 306 307 308
274 276 277 277 277 278 279 280 282 283 284 285 288 290 292 294 295 297 298 299 299 298 297 298 294 283 277 283 286 277 271 277 282 284 286 288 291 293 296 301 304 306 307 307 308 310 311 312 313 312 312 311 310 310 308 306 305 305 305 306 307 309 310
274 275 276 277 277 277 277 278 280 281 283 286 288 290 293 294 295 296 297 298 297 294 291 291 287 279 277 282 281 275 275 280 284 287 292 295 296 297 298 300 302 304 305 306 308 309 310 311 310 309 308 307 307 306 304 303 303 304 306 308 310 311 311
275 275 275 276 276 276 277 278 279 281 283 285 287 290 292 293 293 295 296 296 295 293 290 287 283 281 280 278 275 275 279 283 286 290 294 296 296 296 296 299 301 303 305 306 306 307 307 307 307 305 304 304 304 303 302 302 303 306 308 310 311 311 311
274 275 275 276 277 278 278 279 280 281 282 285 287 289 290 290 291 292 293 295 296 295 290 284 283 286 286 281 277 277 278 280 284 290 294 297 297 296 297 300 302 303 303 303 302 302 303 304 303 303 303 304 303 302 302 303 305 307 309 310 310 310 309
276 277 278 278 279 279 279 281 281 282 284 287 288 290 292 291 291 292 294 296 297 295 288 283 285 289 289 285 282 281 281 283 287 290 294 296 295 294 295 297 298 298 298 298 298 298 299 301 302 303 304 305 303 301 302 304 306 307 308 308 307 307 307
277 278 278 279 279 280 280 282 284 285 287 288 289 290 291 292 293 294 294 293 291 288 284 283 285 286 285 283 283 282 284 286 289 290 292 292 291 290 291 293 294 294 294 294 295 296 298 301 303 305 306 304 301 301 303 305 306 306 305 304 305 306 305
Height
5919 5920 5920 5919 5918 5917 5917 5916 5915 5915 5915 5915 5915 5914 5913 5913 5913 5913 5912 5911 5911 5911 5911 5910 5909 5908 5907 5907 5907 5906 5905 5904 5903 5901 5900 5899 5899 5898 5897 5895 5894 5893 5892 5890 5889 5888 5886 5884 5883 5881 5879 5878 5877 5875 5874 5872 5869 5867 5865 5862 5860 5858 5857
5916 5917 5918 5918 5917 5916 5915 5914 5913 5912 5912 5912 5912 5911 5910 5910 5910 5910 5910 5909 5909 5908 5908 5907 5906 5906 5905 5904 5904 5903 5902 5901 5900 5899 5897 5896 5895 5894 5893 5892 5891 5890 5888 5887 5886 5885 5883 5881 5879 5878 5876 5875 5873 5872 5871 5869 5866 5864 5861 5858 5856 5854 5852
5913 5914 5914 5914 5913 5913 5912 5911 5910 5909 5909 5909 5909 5909 5908 5907 5907 5908 5908 5907 5906 5906 5905 5904 5904 5903 5903 5902 5901 5900 5899 5898 5897 5896 5894 5894 5893 5892 5890 5889 5888 5886 5885 5884 5882 5881 5879 5878 5876 5874 5873 5872 5870 5869 5867 5865 5863 5861 5858 5855 5853 5850 5848
5910 5910 5910 5910 5910 5909 5909 5909 5908 5907 5906 5906 5907 5906 5906 5905 5905 5905 5905 5905 5904 5904 5903 5902 5902 5901 5901 5900 5899 5897 5896 5895 5894 5893 5891 5891 5890 5889 5888 5886 5885 5883 5882 5880 5879 5878 5876 5874 5873 5871 5870 5868 5867 5865 5863 5861 5859 5857 5854 5851 5848 5846 5844
5906 5906 5907 5907 5907 5906 5906 5906 5905 5905 5904 5904 5904 5904 5904 5904 5904 5903 5903 5903 5902 5901 5901 5901 5900 5899 5898 5897 5896 5895 5893 5892 5891 5890 5889 5888 5888 5886 5885 5883 5882 5880 5879 5877 5876 5874 5873 5871 5870 5868 5866 5865 5863 5861 5859 5857 5855 5852 5850 5847 5845 5843 5840
5903 5904 5904 5904 5904 5904 5903 5902 5902 5902 5902 5902 5902 5902 5903 5902 5902 5901 5901 5900 5900 5899 5898 5898 5898 5897 5895 5894 5893 5891 5890 5889 5888 5887 5886 5885 5884 5883 5882 5881 5879 5877 5876 5874 5872 5871 5869 5868 5866 5864 5863 5861 5859 5857 5855 5853 5851 5849 5846 5844 5841 5838 5836
5900 5901 5901 5901 5902 5902 5901 5900 5900 5900 5899 5900 5900 5900 5901 5901 5900 5900 5899 5898 5897 5896 5895 5895 5895 5894 5892 5891 5890 5888 5887 5886 5885 5884 5883 5882 5881 5880 5879 5878 5876 5874 5872 5870 5868 5867 5865 5863 5862 5861 5859 5857 5855 5854 5852 5850 5848 5846 5843 5840 5837 5834 5832
5897 5897 5898 5898 5898 5898 5898 5898 5898 5898 5898 5898 5898 5898 5898 5898 5898 5898 5897 5896 5895 5893 5892 5891 5890 5890 5889 5888 5886 5884 5883 5882 5881 5880 5879 5878 5877 5876 5875 5874 5873 5871 5868 5866 5864 5863 5861 5860 5858 5857 5855 5853 5852 5850 5848 5846 5844 5842 5839 5836 5833 5830 5827
5894 5894 5894 5894 5895 5895 5895 5895 5895 5895 5896 5896 5896 5896 5896 5896 5896 5895 5894 5893 5892 5890 5889 5887 5886 5886 5885 5883 5882 5880 5879 5878 5877 5876 5875 5874 5873 5872 5871 5870 5869 5867 5865 5863 5861 5859 5858 5856 5855 5853 5852 5850 5849 5847 5845 5842 5840 5837 5835 5832 5828 5825 5822
5892 5892 5892 5892 5892 5892 5892 5892 5893 5893 5893 5892 5892 5893 5893 5893 5892 5892 5890 5889 5888 5887 5885 5883 5883 5882 5880 5878 5876 5875 5874 5873 5873 5872 5871 5870 5869 5868 5867 5866 5865 5863 5861 5859 5858 5856 5854 5853 5851 5850 5849 5847 5845 5843 5841 5838 5836 5833 5831 5827 5824 5820 5818
5890 5890 5890 5890 5890 5890 5890 5890 5890 5890 5890 5889 5889 5889 5889 5889 5889 5888 5887 5885 5884 5883 5881 5879 5878 5877 5875 5873 5871 5870 5869 5869 5868 5868 5867 5865 5864 5863 5862 5861 5860 5859 5857 5856 5854 5853 5851 5850 5848 5847 5846 5844 5841 5839 5837 5834 5832 5829 5826 5823 5819 5816 5813
5888 5889 5889 5888 5888 5888 5888 5888 5888 5887 5887 5887 5886 5886 5886 5885 5885 5883 5882 5881 5880 5879 5877 5875 5874 5872 5870 5868 5867 5865 5864 5863 5863 5862 5861 5860 5860 5859 5858 5857 5856 5854 5853 5852 5851 5850 5848 5846 5845 5843 5841 5839 5837 5835 5833 5830 5827 5824 5821 5818 5815 5811 5809
5886 5887 5887 5886 5885 5885 5885 5885 5885 5885 5884 5883 5883 5882 5881 5880 5879 5878 5877 5876 5876 5875 5873 5871 5870 5869 5866 5865 5864 5862 5859 5857 5856 5855 5856 5857 5857 5856 5855 5854 5852 5850 5849 5848 5848 5847 5844 5842 5840 5838 5836 5834 5833 5831 5828 5825 5822 5819 5816 5812 5809 5806 5803
5884 5883 5884 5883 5883 5884 5883 5883 5883 5883 5882 5881 5880 5879 5877 5875 5874 5873 5872 5872 5872 5870 5868 5867 5867 5865 5862 5859 5857 5855 5853 5851 5850 5852 5854 5854 5853 5852 5851 5850 5848 5846 5845 5845 5844 5842 5840 5837 5835 5833 5832 5830 5828 5826 5823 5819 5816 5813 5810 5807 5804 5801 5798
5880 5880 5881 5882 5882 5881 5880 5879 5880 5880 5880 5879 5877 5875 5872 5870 5868 5867 5868 5868 5867 5864 5863 5862 5862 5860 5857 5854 5850 5849 5849 5848 5848 5850 5852 5850 5848 5847 5847 5845 5843 5842 5841 5840 5839 5837 5835 5833 5831 5828 5827 5825 5823 5821 5817 5813 5810 5807 5804 5802 5799 5796 5793
5876 5877 5879 5879 5878 5877 5876 5876 5876 5876 5876 5875 5873 5871 5869 5867 5865 5863 5863 5863 5861 5859 5858 5857 5855 5853 5850 5847 5845 5846 5848 5848 5846 5846 5847 5845 5844 5844 5843 5841 5839 5837 5836 5835 5834 5832 5831 5828 5826 5824 5822 5820 5818 5815 5812 5808 5805 5802 5799 5797 5794 5791 5788
5872 5873 5874 5874 5874 5873 5872 5872 5872 5871 5870 5869 5868 5866 5864 5863 5861 5860 5858 5857 5856 5854 5853 5850 5848 5847 5845 5843 5843 5844 5845 5845 5843 5841 5840 5839 5839 5839 5838 5836 5834 5832 5831 5831 5830 5828 5826 5823 5821 5818 5816 5814 5812 5810 5806 5803 5800 5797 5794 5792 5789 5786 5783
5868 5869 5869 5869 5869 5869 5869 5869 5869 5867 5866 5864 5862 5861 5859 5858 5857 5855 5853 5852 5851 5849 5847 5845 5845 5845 5843 5842 5841 5840 5839 5838 5837 5836 5835 5834 5834 5834 5833 5831 5829 5828 5828 5827 5826 5823 5821 5818 5815 5812 5811 5809 5807 5804 5801 5798 5795 5793 5789 5786 5784 5781 5778
5863 5864 5864 5864 5865 5865 5865 5865 5865 5864 5864 5862 5860 5858 5856 5854 5852 5851 5849 5847 5845 5842 5841 5843 5843 5843 5841 5839 5836 5834 5834 5834 5833 5831 5831 5830 5830 5830 5828 5826 5825 5825 5824 5823 5821 5818 5815 5812 5809 5807 5805 5804 5802 5799 5796 5793 5790 5788 5784 5781 5778 5775 5773
5859 5860 5861 5861 5862 5862 5862 5861 5860 5861 5860 5859 5857 5855 5853 5851 5849 5848 5846 5843 5839 5836 5836 5837 5837 5836 5837 5835 5832 5830 5830 5830 5830 5828 5827 5827 5827 5826 5824 5822 5822 5821 5820 5818 5815 5813 5810 5807 5804 5802 5800 5798 5797 5794 5791 5788 5785 5782 5779 5776 5773 5770 5768
5857 5858 5858 5859 5861 5861 5861 5859 5857 5856 5856 5855 5853 5851 5849 5847 5845 5844 5842 5839 5835 5832 5831 5832 5832 5832 5831 5829 5826 5825 5825 5825 5826 5826 5825 5825 5824 5822 5820 5819 5817 5816 5815 5813 5810 5808 5805 5802 5799 5797 5795 5794 5792 5789 5786 5783 5780 5777 5774 5771 5768 5765 5763
5855 5855 5856 5858 5859 5859 5858 5856 5854 5852 5851 5850 5848 5846 5844 5843 5841 5839 5838 5836 5832 5829 5827 5828 5828 5828 5827 5824 5821 5820 5821 5822 5823 5823 5822 5821 5819 5817 5816 5814 5812 5811 5809 5807 5805 5802 5799 5797 5795 5793 5791 5789 5787 5784 5781 5778 5775 5772 5769 5766 5763 5760 5758
5852 5853 5854 5855 5855 5855 5853 5852 5850 5848 5847 5844 5843 5841 5840 5838 5836 5834 5833 5832 5829 5825 5823 5822 5822 5823 5823 5822 5819 5818 5817 5817 5817 5816 5815 5814 5813 5811 5810 5809 5807 5805 5803 5801 5799 5796 5794 5792 5790 5788 5786 5784 5782 5779 5776 5773 5770 5767 5764 5761 5758 5755 5753
5849 5850 5851 5851 5851 5850 5850 5849 5847 5844 5842 5840 5839 5837 5835 5833 5831 5829 5828 5827 5826 5823 5819 5819 5819 5819 5818 5817 5816 5813 5811 5810 5809 5808 5807 5807 5806 5805 5804 5803 5801 5799 5798 5796 5794 5792 5790 5788 5786 5783 5781 5779 5776 5774 5771 5767 5764 5761 5758 5756 5753 5750 5748
5845 5846 5846 5846 5845 5845 5846 5845 5842 5840 5838 5836 5834 5833 5831 5829 5826 5824 5823 5823 5822 5820 5817 5815 5815 5814 5813 5812 5811 5809 5807 5805 5804 5803 5802 5802 5801 5801 5799 5798 5797 5795 5793 5792 5790 5788 5786 5784 5781 5778 5775 5773 5771 5768 5765 5761 5758 5755 5753 5750 5747 5745 5743
5841 5841 5840 5840 5840 5840 5841 5840 5838 5836 5834 5832 5830 5828 5826 5825 5822 5820 5819 5818 5817 5816 5814 5812 5810 5809 5808 5806 5805 5804 5803 5802 5801 5799 5798 5797 5797 5796 5795 5794 5792 5791 5789 5787 5786 5784 5781 5778 5775 5771 5768 5766 5765 5762 5759 5756 5752 5750 5747 5745 5742 5740 5738
5835 5835 5834 5833 5834 5834 5835 5834 5832 5831 5829 5827 5825 5823 5822 5820 5818 5816 5815 5813 5811 5810 5809 5807 5805 5804 5802 5801 5800 5800 5799 5799 5797 5795 5793 5793 5792 5792 5791 5789 5788 5786 5784 5783 5781 5779 5775 5772 5769 5766 5763 5761 5759 5756 5753 5750 5747 5745 5742 5740 5738 5735 5733
5829 5829 5829 5828 5828 5828 5828 5827 5826 5825 5824 5822 5821 5819 5817 5816 5814 5812 5811 5808 5806 5804 5803 5801 5799 5798 5796 5796 5795 5795 5795 5793 5791 5789 5789 5788 5788 5787 5786 5784 5782 5780 5778 5777 5775 5772 5769 5766 5763 5761 5759 5756 5753 5750 5747 5744 5742 5740 5737 5735 5733 5730 5728
5822 5823 5823 5823 5822 5822 5822 5821 5821 5820 5818 5817 5815 5813 5812 5811 5810 5808 5806 5804 5801 5799 5797 5795 5793 5792 5791 5790 5790 5790 5788 5786 5785 5785 5785 5784 5783 5782 5780 5777 5775 5773 5772 5770 5768 5765 5764 5762 5759 5757 5754 5750 5746 5744 5742 5739 5737 5734 5732 5730 5728 5726 5724
5817 5817 5817 5817 5817 5816 5815 5815 5814 5813 5812 5811 5810 5808 5807 5806 5805 5803 5802 5799 5797 5795 5792 5790 5788 5786 5785 5785 5784 5783 5781 5780 5779 5779 5780 5779 5777 5776 5775 5773 5770 5767 5766 5765 5762 5760 5759 5758 5755 5752 5748 5744 5740 5738 5736 5733 5731 5729 5727 5726 5724 5722 5719
5812 5812 5812 5812 5811 5810 5809 5808 5807 5806 5805 5804 5803 5802 5801 5801 5800 5799 5797 5795 5793 5791 5788 5786 5784 5781 5780 5780 5779 5778 5776 5775 5774 5775 5775 5774 5772 5771 5769 5767 5765 5762 5760 5759 5758 5756 5754 5752 5749 5746 5742 5738 5735 5732 5730 5728 5726 5725 5723 5721 5719 5717 5715
5806 5806 5806 5806 5805 5804 5803 5802 5801 5800 5799 5798 5797 5796 5795 5795 5794 5793 5792 5791 5789 5787 5784 5782 5779 5775 5775 5775 5775 5774 5773 5772 5771 5772 5772 5770 5768 5765 5763 5761 5759 5757 5755 5753 5752 5751 5748 5745 5742 5739 5736 5733 5731 5729 5727 5725 5722 5721 5719 5717 5715 5712 5710
5800 5800 5800 5800 5799 5798 5797 5797 5796 5795 5794 5792 5791 5791 5790 5789 5788 5788 5787 5786 5784 5781 5779 5778 5775 5772 5770 5771 5772 5771 5769 5768 5767 5766 5765 5763 5761 5759 5757 5755 5753 5752 5750 5748 5746 5744 5741 5738 5735 5733 5731 5730 5728 5726 5724 5722 5719 5717 5714 5712 5709 5707 5705
5794 5794 5794 5794 5793 5793 5792 5791 5790 5790 5789 5788 5787 5786 5785 5784 5783 5782 5782 5781 5779 5776 5774 5774 5773 5769 5767 5767 5767 5766 5765 5764 5763 5761 5759 5757 5755 5754 5752 5751 5749 5747 5746 5743 5741 5738 5735 5733 5731 5730 5729 5728 5726 5724 5721 5718 5715 5712 5709 5706 5704 5701 5699
5788 5788 5788 5788 5788 5787 5787 5786 5785 5784 5784 5783 5782 5781 5780 5778 5777 5776 5775 5774 5771 5769 5768 5767 5766 5764 5762 5762 5761 5760 5759 5758 5757 5756 5754 5753 5751 5750 5748 5746 5745 5742 5740 5738 5735 5733 5732 5730 5729 5727 5726 5725 5723 5720 5717 5713 5710 5707 5704 5701 5699 5697 5695
5782 5782 5782 5782 5782 5781 5781 5780 5779 5779 5778 5778 5777 5776 5774 5773 5771 5770 5768 5766 5764 5762 5761 5761 5760 5758 5757 5756 5755 5754 5753 5753 5752 5751 5749 5748 5746 5745 5743 5741 5739 5737 5735 5733 5732 5730 5729 5727 5726 5724 5722 5720 5717 5714 5711 5708 5705 5701 5699 5696 5694 5692 5690
5776 5775 5775 5775 5775 5775 5775 5774 5773 5773 5773 5773 5772 5770 5768 5767 5765 5764 5762 5760 5759 5758 5756 5755 5755 5753 5752 5751 5750 5749 5748 5747 5747 5746 5745 5743 5741 5740 5738 5737 5735 5733 5732 5730 5728 5727 5725 5723 5721 5719 5716 5713 5710 5708 5705 5703 5700 5697 5694 5692 5690 5688 5686
5770 5769 5769 5768 5768 5768 5768 5768 5767 5767 5766 5766 5766 5764 5763 5761 5759 5758 5757 5755 5754 5753 5751 5750 5749 5748 5747 5746 5745 5744 5743 5742 5741 5741 5739 5738 5737 5736 5734 5733 5731 5729 5728 5726 5724 5722 5719 5717 5714 5712 5709 5706 5704 5702 5700 5697 5695 5692 5690 5688 5686 5684 5682